Time,TemperatureF,DewpointF,PressureIn,WindDirection,WindDirectionDegrees,WindSpeedMPH,WindSpeedGustMPH,Humidity,HourlyPrecipIn,Conditions,Clouds,dailyrainin,SoftwareType,DateUTC
2013-01-20 00:10:00,72.7,71.0,29.98,SE,143,0.0,2.0,94,0.20,,,0.30,weatherlink.com 1.10,2013-01-20 04:10:00,
2013-01-20 00:25:00,72.5,71.0,29.98,SE,143,0.0,1.0,95,0.20,,,0.30,weatherlink.com 1.10,2013-01-20 04:25:00,
2013-01-20 00:40:00,72.3,71.0,29.98,SE,143,0.0,1.0,95,0.20,,,0.30,weatherlink.com 1.10,2013-01-20 04:40:00,
2013-01-20 00:55:00,71.9,71.0,29.97,SE,143,0.0,1.0,95,0.10,,,0.30,weatherlink.com 1.10,2013-01-20 04:55:00,
2013-01-20 01:10:00,71.4,70.0,29.96,SE,139,0.0,1.0,95,0.00,,,0.30,weatherlink.com 1.10,2013-01-20 05:10:00,
2013-01-20 01:25:00,71.0,70.0,29.96,SE,139,0.0,0.0,95,0.00,,,0.30,weatherlink.com 1.10,2013-01-20 05:25:00,
2013-01-20 01:40:00,70.8,69.0,29.96,SE,131,0.0,1.0,95,0.00,,,0.30,weatherlink.com 1.10,2013-01-20 05:40:00,
2013-01-20 02:10:00,70.3,69.0,29.95,SE,131,0.0,0.0,96,0.00,,,0.00,weatherlink.com 1.10,2013-01-20 06:10:00,
2013-01-20 02:25:00,70.2,69.0,29.95,SE,131,0.0,0.0,96,0.00,,,0.00,weatherlink.com 1.10,2013-01-20 06:25:00,
2013-01-20 02:43:00,70.1,69.0,29.94,SE,131,0.0,0.0,96,0.00,,,0.00,weatherlink.com 1.10,2013-01-20 06:43:00,
2013-01-20 02:55:00,70.0,69.0,29.94,SE,131,0.0,0.0,96,0.00,,,0.00,weatherlink.com 1.10,2013-01-20 06:55:00,
2013-01-20 03:10:00,70.0,69.0,29.94,SE,131,0.0,0.0,96,0.00,,,0.00,weatherlink.com 1.10,2013-01-20 07:10:00,
2013-01-20 03:25:00,70.0,69.0,29.94,SE,131,0.0,0.0,96,0.00,,,0.00,weatherlink.com 1.10,2013-01-20 07:25:00,
2013-01-20 03:40:00,69.7,69.0,29.94,SE,127,1.0,1.0,96,0.00,,,0.00,weatherlink.com 1.10,2013-01-20 07:40:00,
2013-01-20 03:55:00,69.3,68.0,29.94,SE,140,0.0,1.0,96,0.00,,,0.00,weatherlink.com 1.10,2013-01-20 07:55:00,
2013-01-20 04:10:00,69.0,68.0,29.94,SE,139,0.0,1.0,96,0.00,,,0.00,weatherlink.com 1.10,2013-01-20 08:10:00,
2013-01-20 04:25:00,68.9,68.0,29.94,SE,139,0.0,1.0,96,0.00,,,0.00,weatherlink.com 1.10,2013-01-20 08:25:00,
2013-01-20 04:40:00,68.9,68.0,29.94,SE,140,0.0,1.0,96,0.00,,,0.00,weatherlink.com 1.10,2013-01-20 08:40:00,
2013-01-20 04:55:00,68.8,68.0,29.94,SE,139,0.0,0.0,96,0.00,,,0.00,weatherlink.com 1.10,2013-01-20 08:55:00,
2013-01-20 05:10:00,68.5,67.0,29.94,SE,139,0.0,1.0,96,0.00,,,0.00,weatherlink.com 1.10,2013-01-20 09:10:00,
2013-01-20 05:25:00,68.3,67.0,29.94,SE,139,0.0,0.0,96,0.01,,,0.01,weatherlink.com 1.10,2013-01-20 09:25:00,
2013-01-20 05:40:00,68.2,67.0,29.95,SE,140,0.0,0.0,96,0.01,,,0.01,weatherlink.com 1.10,2013-01-20 09:40:00,
2013-01-20 05:55:00,68.2,67.0,29.94,SE,140,0.0,0.0,97,0.01,,,0.01,weatherlink.com 1.10,2013-01-20 09:55:00,
2013-01-20 06:10:00,68.1,67.0,29.95,SE,139,0.0,0.0,96,0.01,,,0.01,weatherlink.com 1.10,2013-01-20 10:10:00,
2013-01-20 06:25:00,68.0,67.0,29.95,SE,139,0.0,0.0,96,0.00,,,0.01,weatherlink.com 1.10,2013-01-20 10:25:00,
2013-01-20 06:40:00,68.0,67.0,29.95,SE,139,0.0,0.0,96,0.00,,,0.01,weatherlink.com 1.10,2013-01-20 10:40:00,
2013-01-20 06:55:00,68.0,67.0,29.96,SE,139,0.0,1.0,97,0.00,,,0.01,weatherlink.com 1.10,2013-01-20 10:55:00,
2013-01-20 07:10:00,68.2,67.0,29.96,SE,139,0.0,1.0,97,0.00,,,0.01,weatherlink.com 1.10,2013-01-20 11:10:00,
2013-01-20 07:25:00,68.9,68.0,29.97,SE,140,0.0,1.0,97,0.00,,,0.01,weatherlink.com 1.10,2013-01-20 11:25:00,
2013-01-20 07:40:00,70.1,69.0,29.98,SE,139,0.0,1.0,97,0.00,,,0.01,weatherlink.com 1.10,2013-01-20 11:40:00,
2013-01-20 07:55:00,70.8,70.0,29.98,SE,139,0.0,1.0,96,0.00,,,0.01,weatherlink.com 1.10,2013-01-20 11:55:00,
2013-01-20 08:10:00,71.0,70.0,29.99,SE,139,0.0,0.0,96,0.00,,,0.01,weatherlink.com 1.10,2013-01-20 12:10:00,
2013-01-20 08:26:00,72.0,71.0,30.00,SE,140,0.0,1.0,95,0.00,,,0.01,weatherlink.com 1.10,2013-01-20 12:26:00,
2013-01-20 08:41:00,72.8,71.0,30.01,SE,139,0.0,1.0,94,0.00,,,0.01,weatherlink.com 1.10,2013-01-20 12:41:00,
2013-01-20 08:56:00,73.7,72.0,30.01,SE,138,1.0,2.0,93,0.00,,,0.01,weatherlink.com 1.10,2013-01-20 12:56:00,
2013-01-20 09:11:00,74.6,72.0,30.02,East,101,0.0,1.0,92,0.00,,,0.01,weatherlink.com 1.10,2013-01-20 13:11:00,
2013-01-20 09:26:00,76.8,73.0,30.02,ENE,71,2.0,4.0,87,0.00,,,0.01,weatherlink.com 1.10,2013-01-20 13:26:00,
2013-01-20 09:41:00,77.9,73.0,30.02,ESE,107,2.0,3.0,84,0.00,,,0.01,weatherlink.com 1.10,2013-01-20 13:41:00,
2013-01-20 09:56:00,80.0,73.0,30.02,East,98,3.0,6.0,79,0.00,,,0.01,weatherlink.com 1.10,2013-01-20 13:56:00,
2013-01-20 10:11:00,79.7,72.0,30.02,East,83,4.0,9.0,76,0.00,,,0.01,weatherlink.com 1.10,2013-01-20 14:11:00,
2013-01-20 10:26:00,80.4,71.0,30.02,ESE,113,7.0,10.0,72,0.00,,,0.01,weatherlink.com 1.10,2013-01-20 14:26:00,
2013-01-20 10:41:00,80.1,71.0,30.02,East,85,4.0,11.0,73,0.00,,,0.01,weatherlink.com 1.10,2013-01-20 14:41:00,
2013-01-20 10:56:00,80.2,70.0,30.03,NE,53,5.0,12.0,71,0.00,,,0.01,weatherlink.com 1.10,2013-01-20 14:56:00,
2013-01-20 11:11:00,80.8,71.0,30.02,ENE,75,8.0,11.0,72,0.00,,,0.01,weatherlink.com 1.10,2013-01-20 15:11:00,
2013-01-20 11:26:00,81.3,70.0,30.02,East,86,5.0,11.0,68,0.00,,,0.01,weatherlink.com 1.10,2013-01-20 15:26:00,
2013-01-20 11:41:00,81.7,70.0,30.01,East,82,4.0,9.0,67,0.00,,,0.01,weatherlink.com 1.10,2013-01-20 15:41:00,
2013-01-20 11:56:00,82.6,71.0,30.01,ENE,66,6.0,10.0,67,0.00,,,0.01,weatherlink.com 1.10,2013-01-20 15:56:00,
2013-01-20 12:11:00,82.6,69.0,30.00,NNE,33,5.0,12.0,63,0.00,,,0.01,weatherlink.com 1.10,2013-01-20 16:11:00,
2013-01-20 14:51:00,82.8,69.0,29.93,NE,50,4.0,10.0,64,0.00,,,0.01,weatherlink.com 1.10,2013-01-20 18:51:00,
2013-01-20 14:57:00,82.5,70.0,29.93,NE,41,4.0,13.0,65,0.00,,,0.01,weatherlink.com 1.10,2013-01-20 18:57:00,
2013-01-20 15:12:00,82.5,69.0,29.93,East,93,6.0,10.0,64,0.00,,,0.01,weatherlink.com 1.10,2013-01-20 19:12:00,
2013-01-20 15:27:00,82.4,70.0,29.93,ENE,77,5.0,9.0,67,0.00,,,0.01,weatherlink.com 1.10,2013-01-20 19:27:00,
2013-01-20 15:42:00,81.8,70.0,29.93,NE,39,4.0,8.0,67,0.00,,,0.01,weatherlink.com 1.10,2013-01-20 19:42:00,
2013-01-20 15:57:00,81.7,70.0,29.93,ENE,73,4.0,10.0,68,0.00,,,0.01,weatherlink.com 1.10,2013-01-20 19:57:00,
2013-01-20 16:12:00,81.6,70.0,29.92,ENE,76,5.0,11.0,67,0.00,,,0.01,weatherlink.com 1.10,2013-01-20 20:12:00,
2013-01-20 16:27:00,81.3,71.0,29.93,ENE,65,7.0,8.0,71,0.00,,,0.01,weatherlink.com 1.10,2013-01-20 20:27:00,
2013-01-20 16:42:00,80.8,71.0,29.93,NE,43,3.0,9.0,71,0.00,,,0.01,weatherlink.com 1.10,2013-01-20 20:42:00,
2013-01-20 16:57:00,80.8,70.0,29.93,NE,41,3.0,9.0,70,0.00,,,0.01,weatherlink.com 1.10,2013-01-20 20:57:00,
2013-01-20 17:12:00,80.8,69.0,29.93,North,6,6.0,6.0,67,0.00,,,0.01,weatherlink.com 1.10,2013-01-20 21:12:00,
2013-01-20 17:27:00,80.3,68.0,29.93,ENE,70,2.0,6.0,67,0.00,,,0.01,weatherlink.com 1.10,2013-01-20 21:27:00,
2013-01-20 17:42:00,79.5,69.0,29.93,ESE,103,5.0,7.0,71,0.00,,,0.01,weatherlink.com 1.10,2013-01-20 21:42:00,
2013-01-20 17:57:00,78.8,69.0,29.94,East,86,1.0,7.0,73,0.00,,,0.01,weatherlink.com 1.10,2013-01-20 21:57:00,
2013-01-20 18:12:00,78.4,70.0,29.94,East,87,0.0,4.0,75,0.00,,,0.01,weatherlink.com 1.10,2013-01-20 22:12:00,
2013-01-20 18:27:00,77.9,70.0,29.94,SSE,148,1.0,4.0,76,0.00,,,0.01,weatherlink.com 1.10,2013-01-20 22:27:00,
2013-01-20 18:42:00,77.3,70.0,29.94,East,100,2.0,3.0,77,0.00,,,0.01,weatherlink.com 1.10,2013-01-20 22:42:00,
2013-01-20 18:57:00,77.2,70.0,29.95,East,96,1.0,3.0,78,0.00,,,0.01,weatherlink.com 1.10,2013-01-20 22:57:00,
2013-01-20 19:12:00,76.8,70.0,29.95,East,98,0.0,2.0,79,0.00,,,0.01,weatherlink.com 1.10,2013-01-20 23:12:00,
2013-01-20 19:27:00,76.4,70.0,29.95,ESE,110,1.0,1.0,80,0.00,,,0.01,weatherlink.com 1.10,2013-01-20 23:27:00,
2013-01-20 19:42:00,75.9,70.0,29.96,ESE,110,0.0,1.0,81,0.00,,,0.01,weatherlink.com 1.10,2013-01-20 23:42:00,
2013-01-20 19:57:00,75.7,70.0,29.96,ESE,117,1.0,1.0,82,0.00,,,0.01,weatherlink.com 1.10,2013-01-20 23:57:00,
2013-01-20 20:12:00,74.8,69.0,29.97,ESE,117,0.0,1.0,83,0.00,,,0.01,weatherlink.com 1.10,2013-01-21 00:12:00,
2013-01-20 20:27:00,74.6,70.0,29.98,ESE,117,0.0,0.0,84,0.00,,,0.01,weatherlink.com 1.10,2013-01-21 00:27:00,
2013-01-20 20:42:00,74.5,69.0,29.98,ESE,117,0.0,1.0,83,0.00,,,0.01,weatherlink.com 1.10,2013-01-21 00:42:00,
2013-01-20 20:57:00,74.5,69.0,29.98,ESE,117,0.0,1.0,83,0.00,,,0.01,weatherlink.com 1.10,2013-01-21 00:57:00,
2013-01-20 21:12:00,74.8,69.0,29.98,ESE,117,0.0,1.0,83,0.00,,,0.01,weatherlink.com 1.10,2013-01-21 01:12:00,
2013-01-20 21:27:00,74.6,69.0,29.98,SE,130,0.0,1.0,83,0.00,,,0.01,weatherlink.com 1.10,2013-01-21 01:27:00,
2013-01-20 21:42:00,74.1,69.0,29.98,SE,130,0.0,1.0,84,0.00,,,0.01,weatherlink.com 1.10,2013-01-21 01:42:00,
2013-01-20 21:57:00,73.7,69.0,29.99,SE,130,0.0,1.0,86,0.00,,,0.01,weatherlink.com 1.10,2013-01-21 01:57:00,
2013-01-20 22:12:00,73.0,69.0,30.00,SE,129,0.0,0.0,86,0.00,,,0.01,weatherlink.com 1.10,2013-01-21 02:12:00,
2013-01-20 22:27:00,72.6,69.0,30.00,SE,129,0.0,1.0,87,0.00,,,0.01,weatherlink.com 1.10,2013-01-21 02:27:00,
2013-01-20 22:42:00,72.3,69.0,29.99,SE,130,0.0,1.0,88,0.00,,,0.01,weatherlink.com 1.10,2013-01-21 02:42:00,
2013-01-20 22:57:00,72.1,68.0,29.99,SE,129,1.0,1.0,88,0.00,,,0.01,weatherlink.com 1.10,2013-01-21 02:57:00,
2013-01-20 23:12:00,71.6,68.0,29.98,SE,129,0.0,1.0,88,0.00,,,0.01,weatherlink.com 1.10,2013-01-21 03:12:00,
2013-01-20 23:27:00,71.3,68.0,29.99,SE,130,0.0,0.0,89,0.00,,,0.01,weatherlink.com 1.10,2013-01-21 03:27:00,
2013-01-20 23:42:00,71.2,68.0,29.99,SE,129,0.0,0.0,89,0.00,,,0.01,weatherlink.com 1.10,2013-01-21 03:42:00,
2013-01-20 23:57:00,71.2,68.0,29.99,SE,130,0.0,1.0,90,0.00,,,0.01,weatherlink.com 1.10,2013-01-21 03:57:00,